Regional Weather Roundup
Issued by NWS Sterling, VA

Home | Current Version | Previous Version | Graphics & Text | Print | Product List | Glossary On
Versions: 1 2 3 4 5 6 7 8 9 10 11 12 13 14 15 16 17 18 19 20 21 22 23 24 25 26 27 28 29 30 31 32 33 34 35 36 37 38 39 40 41 42 43 44 45 46 47 48 49 50
000
ASUS41 KLWX 282011
RWRLWX

REGIONAL WEATHER ROUNDUP
NATIONAL WEATHER SERVICE BALTIMORE MD/WASHINGTON DC
400 PM EDT FRI APR 28 2017

Note: "FAIR" indicates few or no clouds below 12,000 feet
with no significant weather and/or obstructions to visibility.
 TC=TEMPERATURE CELSIUS

 * =Non NWS site. Station does not report precipitation (e.g. rain,
    snow, etc.), thunder, or fog.

DCZ001-MDZ009-015-VAZ040>042-051-053>054-282100-
WASHINGTON METRO

CITY           SKY/WX    TMP DP  RH WIND       PRES   REMARKS
WASHINGTON NAT MOSUNNY   83  60  45 S13       30.01F
DULLES         MOSUNNY   81  58  45 S12       30.00F
ANDREWS AFB    SUNNY     83  59  45 SW7       30.00F
FT BELVOIR     SUNNY     83  59  43 SE3G17    30.00F
QUANTICO       SUNNY     80  66  62 S7        30.01F
COLLEGE PARK*  SUNNY     84  55  37 S6        30.00F
LEESBURG*      MOSUNNY   82  59  44 CALM      30.01F
MANASSAS*        N/A     83  61  47 S9G17     30.01F

$$

MDZ006>007-011-014-282100-
BALTIMORE METRO

CITY           SKY/WX    TMP DP  RH WIND       PRES   REMARKS
BWI AIRPORT    MOSUNNY   83  57  41 VRB5G17   30.00F
MD SCIENCE CTR   N/A     82  57  42 MISG      30.01F
MARTIN STATE   MOSUNNY   81  64  57 SE12      30.04S
ANNAPOLIS      SUNNY     77  60  55 SE14      30.02F
FORT MEADE*    SUNNY     82  55  39 S8        30.02F

$$

MDZ012-015-019>023-282100-
MARYLAND EASTERN SHORE

CITY           SKY/WX    TMP DP  RH WIND       PRES   REMARKS
OCEAN CITY     SUNNY     69  64  84 S10       30.05S
SALISBURY      MOSUNNY   85  64  49 S10G17    30.02S
BAY BRIDGE AP* SUNNY     84  59  42 S9        30.02F
CAMBRIDGE*     SUNNY     82  63  51 CALM      30.03F
EASTON*        MOSUNNY   84  54  34 SW7       30.07F

$$

MDZ017>025-282100-
SOUTHERN MARYLAND

CITY           SKY/WX    TMP DP  RH WIND       PRES   REMARKS
PATUXENT RIVER MOSUNNY   77  65  66 SE8       30.04S
ST INIGOES     MOSUNNY   80  59  48 E7        30.03F
LEONARDTOWN*   MOSUNNY   81  59  47 E7        30.04F

$$

MDZ003>005-282100-
NORTH CENTRAL MARYLAND

CITY           SKY/WX    TMP DP  RH WIND       PRES   REMARKS
FREDERICK*     SUNNY     84  61  45 CALM      30.03F
HAGERSTOWN APT SUNNY     82  55  39 CALM      30.01F
WESTMINSTER*   SUNNY     82  54  36 W8        30.03F

$$

MDZ501>502-282100-
WESTERN MARYLAND

CITY           SKY/WX    TMP DP  RH WIND       PRES   REMARKS
OAKLAND*       PTSUNNY   72  39  30 S6        30.07F
CUMBERLAND*    SUNNY     82  50  32 SE5       30.03F

$$

VAZ025>031-282100-
SHENANDOAH VALLEY

CITY           SKY/WX    TMP DP  RH WIND       PRES   REMARKS
WINCHESTER*    SUNNY     81  57  44 E6        30.00F
FRONT ROYAL*   SUNNY     82  61  47 SE10      29.99F
LURAY*         SUNNY     84  50  30 SW12      29.99F
NEW MARKET*    SUNNY     83  50  31 SW13G18   29.98F
STAUNTON*      MOSUNNY   81  60  49 SW8       30.04F
WAYNESBORO*    MOSUNNY   79  62  54 SW6       30.04F

$$

WVZ021-048>050-054>055-282100-
EASTERN WEST VIRGINIA PANHANDLE

CITY           SKY/WX    TMP DP  RH WIND       PRES   REMARKS
MARTINSBURG    MOSUNNY   81  55  40 VRB7      30.00F
PETERSBURG*    PTSUNNY   85  56  36 E10       29.97F

$$

VAZ036>039-050-282100-
CENTRAL FOOTHILLS

CITY           SKY/WX    TMP DP  RH WIND       PRES   REMARKS
CHARLOTTESVILL MOSUNNY   84  58  40 S9G18     30.00F
CULPEPER*      SUNNY     85  61  44 S7        30.01F
ORANGE*        MOSUNNY   82  59  44 SE3       30.01F
GORDONSVILLE*  SUNNY     84  60  43 SW6       30.00F
WARRENTON*     MOSUNNY   86  55  33 SE5       30.00F

$$

VAZ055>057-282100-
NORTH AND CENTRAL PIEDMONT

CITY           SKY/WX    TMP DP  RH WIND       PRES   REMARKS
FREDERICKSBRG* MOSUNNY   84  63  48 S6        30.00F
STAFFORD*      SUNNY     81  64  54 S8        30.04F

$$

NCZ024-NYZ072-PAZ021-071-VAZ022-071-282100-
OTHER REGIONAL OBSERVATIONS

CITY           SKY/WX    TMP DP  RH WIND       PRES   REMARKS
NEW YORK CITY  SUNNY     83  44  25 VRB5      30.00R
PHILADELPHIA   MOSUNNY   84  51  31 W8        30.01F
PITTSBURGH     CLOUDY    71  43  36 SW5       30.02F
ROANOKE        PTSUNNY   82  63  52 S10       30.04F
RICHMOND       PTSUNNY   84  65  52 SW13      30.02F
RALEIGH        PTSUNNY   86  68  54 SW14      30.05F

$$

ANZ530>537-282100-
MARINE OBSERVATIONS

STATION/POSITION TIME  TEMP    WIND        PRES
                       AIR SEA DIR/SP/G
                 (UTC) (F)     (DEG/KT/KT) (MB)
THOMAS PT LIGHT  2000   73 62  170/ 11/ 12   N/A
BALT KEY BRIDGE  1942   75     120/ 14/ 15 1016.3F
COVE POINT       1942   72     170/ 10/ 11 1017.8F
LEWISETTA        1942   69 67  110/  8/  9 1017.0F
SOLOMONS ISLAND  1942   72 64  110/  8/  9   N/A
PINEY POINT      1948          160/ 10/ 11   N/A

$$




USA.gov is the U.S. government's official web portal to all federal, state and local government web resources and services.